Back to catalog

STARLINK-5086

AliveCommunicationsVLEO
NORAD 54856·PAYLOAD·🇺🇸 United States

Launched Dec 28, 2022 from Cape Canaveral Space Force Station

Loading…

Next Passes (next 24 hours)

TLE

FreshSource: CelesTrak SupGP

Epoch: Sep 15, 2026, 01:23 UTC

1 54856C 22177AN  26258.05812500  .00048176  00000+0  17456-2 0  2589
2 54856  43.0003 132.2831 0001336 274.1857 322.6670 15.27542325    10

Track STARLINK-5086 in real time with AllMySat

Download on the App Store